Weather History for Lemoore (Abandoned) Willett A, CO

Change the Weather History Date:

Wednesday, April 16, 2014

  Actual Average (KBJC) Record (KBJC)
Temperature  
Mean Temperature 49 °F -  
Max Temperature 60 °F 56 °F 81 °F (1985)
Min Temperature 38 °F 35 °F 23 °F (1999)
Degree Days  
Heating Degree Days 16    
Moisture  
Dew Point 25 °F    
Average Humidity 39    
Maximum Humidity 67    
Minimum Humidity 21    
Precipitation  
Precipitation 0.00 in - - ()
Sea Level Pressure  
Sea Level Pressure 29.91 in    
Wind  
Wind Speed 10 mph (North)    
Max Wind Speed 23 mph    
Max Gust Speed 32 mph    
Visibility 10 miles    
Events      
Averages and records for this station are not official NWS values.
T = Trace of Precipitation, MM = Missing Value Source: NWS Daily Summary

Daily Weather History Graph

Daily Weather History Graph

Search for Another Location

Airport:

Trip Planner

Search our weather history database for the weather conditions in past years. The results will help you decide how hot, cold, wet, or windy it might be!

Date:

Astronomy

Apr. 16, 2014 Rise Set
Actual Time 6:21 AM MDT 7:40 PM MDT
Civil Twilight 5:52 AM MDT 8:08 PM MDT
Nautical Twilight 5:19 AM MDT 8:42 PM MDT
Astronomical Twilight 4:43 AM MDT 9:18 PM MDT
Moon 9:27 PM MDT 7:10 AM MDT
Length of Visible Light 14h 15m
Length of Day
13h 19m
Full, 98% of the Moon is Illuminated
Apr 16
Full
Apr 22
Last Quarter
Apr 29
New
May 6
First Quarter
May 14
Full

Hourly Weather History & Observations

Time (MDT) Temp. Windchill Dew Point Humidity Pressure Visibility Wind Dir Wind Speed Gust Speed Precip Events Conditions
12:15 AM 54.0 °F - 19.6 °F 26% 29.68 in 10.0 mi West 10.4 mph 16.1 mph N/A   Clear
12:35 AM 57.6 °F - 19.4 °F 23% 29.68 in 10.0 mi West 12.7 mph 24.2 mph N/A   Clear
12:55 AM 57.6 °F - 19.2 °F 23% 29.67 in 10.0 mi West 20.7 mph 32.2 mph N/A   Clear
1:15 AM 57.6 °F - 20.1 °F 23% 29.67 in 10.0 mi WNW 16.1 mph 32.2 mph N/A   Clear
1:35 AM 56.5 °F - 19.9 °F 24% 29.69 in 10.0 mi WNW 15.0 mph 23.0 mph N/A   Clear
1:55 AM 57.6 °F - 20.1 °F 23% 29.70 in 10.0 mi WNW 13.8 mph 29.9 mph N/A   Clear
2:15 AM 53.8 °F - 20.8 °F 28% 29.71 in 10.0 mi NNW 10.4 mph - N/A   Mostly Cloudy
2:35 AM 52.7 °F - 25.2 °F 34% 29.71 in 10.0 mi WNW 17.3 mph 24.2 mph N/A   Scattered Clouds
2:55 AM 53.6 °F - 25.2 °F 33% 29.73 in 10.0 mi West 18.4 mph 26.5 mph N/A   Clear
3:15 AM 52.3 °F - 26.6 °F 37% 29.74 in 10.0 mi WNW 11.5 mph 24.2 mph N/A   Clear
3:35 AM 47.7 °F - 30.6 °F 52% 29.76 in 10.0 mi WNW 9.2 mph - N/A   Clear
3:55 AM 47.3 °F - 28.8 °F 49% 29.76 in 10.0 mi NW 11.5 mph 16.1 mph N/A   Clear
4:15 AM 46.0 °F 41.9 °F 28.6 °F 51% 29.77 in 10.0 mi WNW 8.1 mph - N/A   Clear
4:35 AM 43.2 °F 39.7 °F 29.1 °F 58% 29.78 in 10.0 mi WNW 5.8 mph - N/A   Clear
4:55 AM 45.1 °F 42.8 °F 25.5 °F 46% 29.79 in 10.0 mi WSW 4.6 mph - N/A   Clear
5:15 AM 41.2 °F 38.2 °F 25.5 °F 54% 29.80 in 10.0 mi West 4.6 mph - N/A   Clear
5:35 AM 38.7 °F - 28.4 °F 67% 29.80 in 10.0 mi Calm Calm - N/A   Clear
5:55 AM 39.0 °F 34.8 °F 27.5 °F 63% 29.81 in 10.0 mi NE 5.8 mph - N/A   Clear
6:15 AM 39.7 °F 37.6 °F 27.9 °F 63% 29.83 in 10.0 mi North 3.5 mph - N/A   Clear
6:35 AM 40.3 °F - 27.0 °F 59% 29.84 in 10.0 mi Calm Calm - N/A   Clear
6:55 AM 38.1 °F - 26.2 °F 62% 29.85 in 10.0 mi Calm Calm - N/A   Clear
7:15 AM 38.8 °F - 27.1 °F 63% 29.86 in 10.0 mi Calm Calm - N/A   Clear
7:35 AM 43.0 °F 41.3 °F 28.2 °F 56% 29.87 in 10.0 mi East 3.5 mph - N/A   Clear
7:55 AM 47.8 °F - 24.3 °F 40% 29.87 in 10.0 mi NE 4.6 mph - N/A   Clear
8:15 AM 50.4 °F - 19.8 °F 30% 29.88 in 10.0 mi NNE 5.8 mph - N/A   Clear
8:35 AM 52.0 °F - 17.8 °F 26% 29.88 in 10.0 mi North 12.7 mph - N/A   Clear
8:55 AM 50.9 °F - 25.3 °F 37% 29.89 in 10.0 mi NE 12.7 mph - N/A   Clear
9:15 AM 51.3 °F - 27.7 °F 40% 29.89 in 10.0 mi North 10.4 mph - N/A   Clear
9:35 AM 52.5 °F - 25.9 °F 36% 29.89 in 10.0 mi North 9.2 mph - N/A   Clear
9:55 AM 54.5 °F - 24.6 °F 31% 29.89 in 10.0 mi North 9.2 mph 16.1 mph N/A   Clear
10:15 AM 54.9 °F - 25.2 °F 32% 29.90 in 10.0 mi North 11.5 mph 17.3 mph N/A   Clear
10:35 AM 54.5 °F - 25.2 °F 32% 29.90 in 10.0 mi NNE 15.0 mph 19.6 mph N/A   Clear
10:55 AM 56.3 °F - 21.0 °F 25% 29.90 in 10.0 mi North 9.2 mph 16.1 mph N/A   Clear
11:15 AM 57.2 °F - 22.3 °F 26% 29.90 in 10.0 mi NE 18.4 mph 24.2 mph N/A   Clear
11:35 AM 55.4 °F - 23.7 °F 29% 29.91 in 10.0 mi NE 23.0 mph 28.8 mph N/A   Clear
11:55 AM 55.4 °F - 22.6 °F 28% 29.90 in 10.0 mi NNE 19.6 mph 27.6 mph N/A   Clear
12:15 PM 56.5 °F - 22.1 °F 26% 29.89 in 10.0 mi NE 16.1 mph 23.0 mph N/A   Clear
12:35 PM 58.6 °F - 22.6 °F 25% 29.90 in 10.0 mi NE 11.5 mph 20.7 mph N/A   Clear
12:55 PM 58.8 °F - 22.3 °F 24% 29.91 in 10.0 mi ENE 16.1 mph 21.9 mph N/A   Clear
1:15 PM 59.2 °F - 22.5 °F 24% 29.91 in 10.0 mi ENE 15.0 mph 23.0 mph N/A   Clear
1:35 PM 59.0 °F - 21.4 °F 23% 29.91 in 10.0 mi NE 10.4 mph 20.7 mph N/A   Clear
1:55 PM 59.4 °F - 21.4 °F 23% 29.91 in 10.0 mi ENE 11.5 mph - N/A   Clear
2:15 PM 60.1 °F - 20.3 °F 22% 29.90 in 10.0 mi NE 15.0 mph 24.2 mph N/A   Clear
2:35 PM 58.5 °F - 19.2 °F 22% 29.91 in 10.0 mi NE 10.4 mph 23.0 mph N/A   Clear
2:55 PM 58.3 °F - 18.5 °F 21% 29.91 in 10.0 mi ENE 11.5 mph 17.3 mph N/A   Scattered Clouds
3:15 PM 56.5 °F - 19.2 °F 23% 29.92 in 10.0 mi NE 15.0 mph - N/A   Scattered Clouds
3:35 PM 55.6 °F - 19.6 °F 25% 29.93 in 10.0 mi ENE 13.8 mph - N/A   Clear
3:55 PM 54.5 °F - 23.4 °F 30% 29.94 in 10.0 mi NE 17.3 mph - N/A   Scattered Clouds
4:15 PM 53.8 °F - 25.2 °F 33% 29.95 in 10.0 mi NE 11.5 mph - N/A   Scattered Clouds
4:35 PM 53.6 °F - 25.2 °F 33% 29.96 in 10.0 mi East 9.2 mph 17.3 mph N/A   Mostly Cloudy
4:55 PM 53.1 °F - 23.7 °F 32% 29.97 in 10.0 mi ENE 9.2 mph 16.1 mph N/A   Overcast
5:15 PM 52.7 °F - 22.8 °F 31% 29.98 in 10.0 mi NE 8.1 mph - N/A   Overcast
5:35 PM 52.2 °F - 23.4 °F 33% 30.00 in 10.0 mi NNE 6.9 mph - N/A   Overcast
5:55 PM 51.8 °F - 23.7 °F 33% 30.00 in 10.0 mi NNE 6.9 mph - N/A   Overcast
6:15 PM 50.9 °F - 23.4 °F 34% 30.02 in 10.0 mi East 5.8 mph - N/A   Overcast
6:35 PM 48.9 °F - 25.9 °F 41% 30.03 in 10.0 mi NE 5.8 mph 9.2 mph N/A   Light Drizzle
6:55 PM 49.3 °F - 25.9 °F 40% 30.04 in 10.0 mi SW 6.9 mph - N/A   Overcast
7:15 PM 48.2 °F - 27.7 °F 45% 30.04 in 10.0 mi NNW 3.5 mph - N/A   Overcast
7:35 PM 48.2 °F - 27.1 °F 44% 30.06 in 10.0 mi West 3.5 mph - N/A   Overcast
7:55 PM 48.2 °F - 27.7 °F 45% 30.06 in 10.0 mi NW 3.5 mph - N/A   Overcast
8:15 PM 48.2 °F - 26.1 °F 42% 30.07 in 10.0 mi Calm Calm - N/A   Overcast
8:35 PM 48.0 °F - 26.2 °F 43% 30.08 in 10.0 mi WSW 3.5 mph - N/A   Overcast
8:55 PM 47.5 °F - 27.0 °F 45% 30.09 in 10.0 mi Calm Calm - N/A   Overcast
9:15 PM 46.8 °F - 26.8 °F 46% 30.09 in 10.0 mi Calm Calm - N/A   Overcast
9:35 PM 46.4 °F 45.2 °F 27.3 °F 47% 30.10 in 10.0 mi SE 3.5 mph - N/A   Overcast
9:55 PM 45.0 °F 43.5 °F 32.5 °F 62% 30.10 in 10.0 mi NW 3.5 mph - N/A   Overcast
10:15 PM 44.6 °F - 32.5 °F 63% 30.11 in 10.0 mi Calm Calm - N/A   Overcast
10:35 PM 44.2 °F - 32.7 °F 64% 30.10 in 10.0 mi Calm Calm - N/A   Overcast
10:55 PM 44.6 °F - 32.5 °F 63% 30.11 in 10.0 mi Calm Calm - N/A   Overcast
11:15 PM 44.6 °F - 32.5 °F 63% 30.11 in 10.0 mi Calm Calm - N/A   Overcast
11:35 PM 44.8 °F 40.4 °F 32.4 °F 62% 30.11 in 10.0 mi East 8.1 mph - N/A   Overcast
11:55 PM 45.5 °F 43.2 °F 29.8 °F 54% 30.11 in 10.0 mi East 4.6 mph - N/A   Overcast